1512558000.24,291,2.94,73400.3,-7.35,-8.03,-8.03,0,*5B
1512558001.48,292,2.94,73400.5,-7.33,-7.99,-7.99,0,*5E
1512558002.71,293,2.94,73392.8,-7.33,-8.03,-8.03,0,*5F
1512558003.94,294,2.94,73390.8,-7.33,-7.99,-8.03,0,*54
1512558005.18,295,2.94,73416.5,-7.33,-7.99,-8.03,0,*55
1512558006.41,296,2.94,73408.8,-7.33,-8.03,-7.99,0,*56
1512558007.64,297,2.94,73384.3,-7.33,-8.03,-8.03,0,*5B
1512558008.88,298,2.94,73336.3,-7.35,-8.21,-8.07,0,*56
1512558010.13,299,2.94,73324.3,-7.35,-8.21,-8.07,0,*57
1512558011.34,300,2.88,73362.8,-7.33,-8.17,-8.11,0,*52
1512558012.55,301,2.94,73372.3,-7.33,-8.17,-8.11,0,*53
1512558013.74,302,2.94,73368.3,-7.33,-8.17,-8.17,0,*56
1512558014.93,303,2.94,73358.8,-7.33,-8.17,-8.17,0,*57
1512558016.11,304,2.94,73350.5,-7.33,-8.17,-8.17,0,*50
1512558017.3,305,2.94,73350.8,-7.33,-8.17,-8.17,0,*51
1512558018.48,306,2.94,73368.5,-7.33,-8.17,-8.17,0,*52
1512558019.7,307,2.88,73370.3,-7.35,-8.21,-8.21,0,*55
1512558020.88,308,2.88,73362.0,-7.33,-8.17,-8.17,0,*5C
1512558022.1,309,2.88,73352.5,-7.33,-8.17,-8.11,0,*5B
1512558023.28,310,2.88,73360.0,-7.33,-8.17,-8.17,0,*55
1512558024.47,311,2.94,73390.0,-7.33,-8.17,-8.17,0,*54
1512558025.66,312,2.94,73370.8,-7.33,-8.17,-8.17,0,*57
1512558026.87,313,2.94,73354.5,-7.35,-8.21,-8.21,0,*50
1512558028.06,314,2.94,73344.8,-7.33,-8.17,-8.21,0,*54
1512558029.25,315,2.88,73364.3,-7.33,-8.21,-8.21,0,*50
1512558030.45,316,2.94,73360.5,-7.35,-8.33,-8.25,0,*52
1512558031.64,317,2.94,73354.3,-7.33,-8.21,-8.21,0,*52
1512558032.82,318,2.94,73368.5,-7.33,-8.29,-8.29,0,*5D
1512558034.01,319,2.88,73356.8,-7.33,-8.29,-8.29,0,*5C
1512558035.22,320,2.88,73368.0,-7.35,-8.37,-8.29,0,*5F
1512558036.4,321,2.94,73380.8,-7.33,-8.33,-8.41,0,*52
1512558037.62,322,2.94,73360.5,-7.35,-8.37,-8.37,0,*52
1512558038.8,323,2.94,73358.8,-7.33,-8.33,-8.41,0,*50
1512558039.98,324,2.88,73364.5,-7.33,-8.33,-8.33,0,*52
1512558041.19,325,2.88,73370.0,-7.35,-8.37,-8.45,0,*50
1512558042.41,326,2.94,73378.3,-7.35,-8.33,-8.37,0,*52
1512558043.62,327,2.88,73382.3,-7.35,-8.45,-8.33,0,*56
1512558044.8,328,2.88,73366.0,-7.33,-8.33,-8.29,0,*55
1512558046.0,329,2.88,73360.8,-7.35,-8.33,-8.33,0,*59
1512558047.21,330,2.88,73374.5,-7.35,-8.33,-8.25,0,*56
1512558048.39,331,2.94,73370.3,-7.33,-8.21,-8.21,0,*56
1512558049.59,332,2.94,73380.3,-7.35,-8.33,-8.33,0,*53
1512558050.78,333,2.94,73396.0,-7.33,-8.29,-8.21,0,*5C
1512558051.99,334,2.94,73408.0,-7.35,-8.25,-8.25,0,*55
1512558053.21,335,2.88,73390.8,-7.35,-8.25,-8.25,0,*54
1512558054.39,336,2.94,73364.8,-7.33,-8.21,-8.25,0,*55
1512558055.58,337,2.94,73354.5,-7.33,-8.25,-8.25,0,*50
1512558056.76,338,2.94,73350.5,-7.33,-8.21,-8.21,0,*5F
1512558057.98,339,2.88,73360.0,-7.35,-8.25,-8.21,0,*5C
1512558059.19,340,2.94,73372.5,-7.33,-8.11,-8.17,0,*56
1512558060.38,341,2.94,73344.3,-7.33,-8.17,-8.17,0,*51
1512558061.59,342,2.94,73370.5,-7.35,-8.21,-8.17,0,*51
1512558062.77,343,2.88,73384.5,-7.33,-8.17,-8.17,0,*53
1512558063.99,344,2.94,73382.3,-7.33,-8.17,-8.11,0,*52
1512558065.2,345,2.94,73362.3,-7.33,-8.11,-8.17,0,*53
1512558066.44,346,2.94,73380.0,-7.33,-8.11,-8.11,0,*56
1512558067.65,347,2.88,73382.0,-7.33,-8.17,-8.03,0,*52
1512558068.86,348,2.88,73380.0,-7.35,-8.17,-8.17,0,*5E
1512558070.05,349,2.94,73370.3,-7.33,-8.17,-8.17,0,*59
1512558071.24,350,2.88,73390.5,-7.33,-8.17,-8.17,0,*51
1512558072.45,351,2.88,73382.8,-7.33,-8.11,-8.17,0,*56
1512558073.63,352,2.88,73366.5,-7.33,-8.17,-8.17,0,*53
1512558074.82,353,2.88,73352.3,-7.33,-8.29,-8.17,0,*5F
1512558076.03,354,2.94,73336.5,-7.35,-8.25,-8.21,0,*57
1512558077.22,355,2.94,73332.8,-7.33,-8.21,-8.17,0,*51
1512558078.4,356,2.88,73328.3,-7.33,-8.21,-8.17,0,*52
1512558079.59,357,2.94,73346.5,-7.33,-8.17,-8.17,0,*56
1512558080.8,358,2.88,73362.0,-7.35,-8.21,-8.21,0,*5F
1512558081.99,359,2.88,73380.5,-7.33,-8.17,-8.17,0,*58
1512558083.17,360,2.88,73384.0,-7.33,-8.17,-8.17,0,*52
1512558084.36,361,2.94,73390.0,-7.33,-8.17,-8.17,0,*53
1512558085.54,362,2.94,73384.3,-7.33,-8.17,-8.17,0,*50
1512558086.79,363,2.94,73396.5,-7.33,-8.11,-8.11,0,*51
1512558088.03,364,2.94,73392.5,-7.33,-8.11,-8.11,0,*56
1512558089.21,365,2.88,73396.3,-7.33,-8.17,-8.17,0,*57
1512558090.42,366,2.94,73372.3,-7.33,-8.11,-8.17,0,*52
1512558091.64,367,2.88,73392.8,-7.35,-8.21,-8.21,0,*53
1512558092.9,368,2.88,73436.3,-7.31,-8.11,-8.11,0,*58
1512558094.14,369,2.94,73430.8,-7.33,-8.11,-8.11,0,*5B
1512558095.35,370,2.88,73396.0,-7.33,-8.17,-8.03,0,*56
1512558096.59,371,2.94,73412.0,-7.31,-8.17,-8.11,0,*56
1512558097.83,372,2.88,73398.5,-7.31,-8.17,-8.11,0,*55
1512558099.09,373,2.94,73392.3,-7.31,-8.11,-8.11,0,*52
1512558100.35,374,2.88,73380.5,-7.31,-8.11,-8.11,0,*55
1512558101.59,375,2.94,73372.3,-7.33,-8.11,-8.03,0,*55
1512558102.83,376,2.88,73374.5,-7.33,-8.11,-8.03,0,*56
1512558104.06,377,2.88,73374.5,-7.29,-8.07,-7.99,0,*57
1512558105.31,378,2.94,73396.0,-7.31,-8.03,-8.03,0,*59
1512558106.56,379,2.88,73382.8,-7.31,-8.03,-8.03,0,*58
1512558107.8,380,2.94,73376.8,-7.31,-8.11,-8.17,0,*58
1512558109.06,381,2.94,73380.5,-7.31,-8.11,-8.11,0,*5F
1512558110.29,382,2.94,73372.5,-7.29,-8.07,-7.99,0,*5D
1512558111.53,383,2.94,73364.3,-7.29,-8.07,-8.07,0,*54
1512558112.79,384,2.88,73376.8,-7.31,-8.03,-8.03,0,*5A
1512558114.02,385,2.88,73408.3,-7.29,-8.07,-7.99,0,*5A
1512558115.28,386,2.88,73414.3,-7.31,-8.11,-7.99,0,*57
1512558116.52,387,2.94,73402.8,-7.29,-8.07,-7.99,0,*58
1512558117.76,388,2.94,73364.0,-7.29,-8.11,-8.07,0,*58
1512558118.99,389,2.94,73360.5,-7.29,-8.07,-8.11,0,*59
1512558120.22,390,2.94,73362.8,-7.29,-8.11,-8.11,0,*56
1512558121.4,391,2.88,73358.5,-7.29,-8.17,-8.17,0,*57
1512558122.61,392,2.94,73378.3,-7.31,-8.17,-8.17,0,*5D
1512558123.85,393,2.94,73380.3,-7.29,-8.11,-8.11,0,*55
1512558125.03,394,2.94,73378.8,-7.29,-8.17,-8.17,0,*52
1512558126.26,395,2.88,73382.5,-7.29,-8.11,-8.11,0,*53
1512558127.49,396,2.94,73400.3,-7.29,-8.07,-8.11,0,*57
1512558128.73,397,2.94,73392.3,-7.29,-8.11,-8.11,0,*51
1512558129.97,398,2.88,73396.8,-7.29,-8.11,-8.07,0,*59
1512558131.2,399,2.94,73402.0,-7.29,-8.11,-8.11,0,*5F
1512558132.43,400,2.94,73384.3,-7.29,-8.11,-8.11,0,*58
1512558133.68,401,2.94,73344.3,-7.29,-8.07,-8.07,0,*59
1512558134.91,402,2.94,73338.3,-7.29,-8.11,-8.11,0,*5A
1512558136.14,403,2.94,73350.3,-7.29,-8.11,-8.11,0,*5B
1512558137.35,404,2.94,73366.8,-7.29,-8.17,-8.11,0,*5A
1512558138.53,405,2.94,73356.0,-7.29,-8.17,-8.17,0,*5D
1512558139.71,406,2.94,73356.3,-7.29,-8.17,-8.17,0,*5E
1512558140.92,407,2.88,73358.0,-7.31,-8.29,-8.21,0,*5E
1512558142.13,408,2.88,73360.0,-7.31,-8.21,-8.21,0,*59
1512558143.33,409,2.88,73362.0,-7.31,-8.29,-8.29,0,*58
1512558144.51,410,2.94,73354.0,-7.29,-8.25,-8.17,0,*58
1512558145.69,411,2.94,73354.3,-7.29,-8.25,-8.25,0,*58
1512558146.87,412,2.94,73360.0,-7.29,-8.25,-8.17,0,*5A
1512558148.08,413,2.88,73348.3,-7.31,-8.29,-8.29,0,*53
1512558149.31,414,2.88,73352.3,-7.27,-8.21,-8.11,0,*50
1512558150.52,415,2.88,73356.8,-7.31,-8.21,-8.29,0,*5D
1512558151.7,416,2.88,73360.5,-7.29,-8.25,-8.17,0,*5E
1512558152.88,417,2.88,73356.0,-7.29,-8.25,-8.17,0,*5F
1512558154.06,418,2.94,73324.8,-7.29,-8.25,-8.17,0,*50
1512558155.24,419,2.88,73340.8,-7.29,-8.17,-8.25,0,*51
1512558156.42,420,2.88,73348.8,-7.29,-8.25,-8.17,0,*5B
1512558157.59,421,2.88,73364.0,-7.29,-8.25,-8.25,0,*5B
1512558158.77,422,2.88,73362.5,-7.29,-8.25,-8.25,0,*58
1512558159.98,423,2.88,73358.8,-7.31,-8.29,-8.21,0,*58
1512558161.19,424,2.88,73332.5,-7.31,-8.29,-8.21,0,*5F
1512558162.37,425,2.94,73308.3,-7.29,-8.25,-8.25,0,*5F
1512558163.57,426,2.88,73330.8,-7.31,-8.33,-8.29,0,*5E
1512558164.76,427,2.94,73342.8,-7.29,-8.29,-8.37,0,*52
1512558165.93,428,2.88,73318.8,-7.29,-8.41,-8.33,0,*57
1512558167.14,429,2.88,73316.0,-7.31,-8.33,-8.45,0,*5B
1512558168.34,430,2.94,73306.5,-7.31,-8.45,-8.55,0,*53
1512558169.56,431,2.88,73288.8,-7.31,-8.55,-8.45,0,*52
1512558170.77,432,2.94,73288.3,-7.31,-8.45,-8.45,0,*50
1512558171.98,433,2.94,73242.8,-7.31,-8.45,-8.45,0,*51
1512558173.19,434,2.94,73258.0,-7.29,-8.41,-8.51,0,*5E
1512558174.38,435,2.94,73308.0,-7.33,-8.55,-8.45,0,*54
1512558175.57,436,2.94,73318.5,-7.33,-8.55,-8.45,0,*57
1512558176.78,437,2.94,73364.8,-7.31,-8.45,-8.45,0,*55
1512558178.0,438,2.94,73376.8,-7.31,-8.41,-8.45,0,*5E
1512558179.21,439,2.94,73372.0,-7.31,-8.41,-8.41,0,*5B
1512558180.41,440,2.94,73370.5,-7.31,-8.33,-8.41,0,*50
1512558181.61,441,2.94,73372.3,-7.31,-8.41,-8.33,0,*51
1512558182.81,442,2.88,73364.8,-7.31,-8.33,-8.33,0,*57
1512558184.02,443,2.94,73366.5,-7.31,-8.41,-8.33,0,*53
1512558185.22,444,2.94,73380.0,-7.31,-8.33,-8.33,0,*51
1512558186.42,445,2.88,73376.5,-7.31,-8.29,-8.29,0,*50
1512558187.63,446,2.88,73392.3,-7.31,-8.29,-8.21,0,*5B
1512558188.84,447,2.94,73392.3,-7.31,-8.21,-8.21,0,*52
1512558190.05,448,2.94,73416.5,-7.31,-8.29,-8.21,0,*55
1512558191.26,449,2.94,73398.8,-7.31,-8.21,-8.21,0,*5C
1512558192.45,450,2.94,73398.8,-7.33,-8.21,-8.21,0,*56
1512558193.66,451,2.94,73406.8,-7.31,-8.21,-8.21,0,*55
1512558194.87,452,2.94,73404.0,-7.31,-8.29,-8.21,0,*5E
1512558196.07,453,2.94,73396.3,-7.31,-8.29,-8.21,0,*5F
1512558197.28,454,2.94,73382.5,-7.31,-8.29,-8.21,0,*58
1512558198.49,455,2.94,73392.0,-7.31,-8.29,-8.21,0,*59
1512558199.7,456,2.94,73382.3,-7.31,-8.21,-8.21,0,*52
1512558200.91,457,2.88,73354.0,-7.31,-8.21,-8.21,0,*53
1512558202.12,458,2.94,73346.8,-7.31,-8.21,-8.21,0,*5C
1512558203.31,459,2.94,73362.0,-7.33,-8.21,-8.21,0,*5F
1512558204.52,460,2.88,73414.0,-7.31,-8.21,-8.21,0,*57
1512558205.73,461,2.94,73412.5,-7.31,-8.21,-8.21,0,*56
1512558206.91,462,2.94,73396.5,-7.29,-8.17,-8.17,0,*5C
1512558208.12,463,2.94,73402.0,-7.31,-8.21,-8.21,0,*54
1512558209.33,464,2.94,73412.5,-7.31,-8.21,-8.21,0,*53
1512558210.54,465,2.94,73402.8,-7.31,-8.21,-8.21,0,*52
1512558211.74,466,2.94,73362.5,-7.31,-8.21,-8.17,0,*54
1512558212.95,467,2.94,73362.3,-7.29,-8.17,-8.11,0,*5F
1512558214.16,468,2.94,73354.8,-7.31,-8.17,-8.17,0,*5F
1512558215.4,469,2.88,73376.0,-7.31,-8.17,-8.11,0,*58
1512558216.6,470,2.94,73400.0,-7.31,-8.17,-8.17,0,*56
1512558217.84,471,2.94,73400.0,-7.31,-8.11,-8.17,0,*51
1512558219.05,472,2.94,73404.3,-7.31,-8.17,-8.17,0,*54
1512558220.28,473,2.94,73374.8,-7.29,-8.07,-8.11,0,*5B
1512558221.52,474,2.94,73344.8,-7.31,-8.17,-8.11,0,*54
1512558222.76,475,2.94,73352.5,-7.31,-8.17,-8.07,0,*52
1512558224.0,476,2.94,73364.0,-7.29,-8.11,-8.07,0,*5E
1512558225.24,477,2.94,73356.8,-7.29,-8.11,-8.07,0,*5F
1512558226.45,478,2.94,73356.0,-7.31,-8.17,-8.17,0,*5E
1512558227.68,479,2.88,73374.0,-7.29,-8.11,-8.11,0,*56
1512558228.92,480,2.88,73358.3,-7.31,-8.11,-8.17,0,*5F
1512558230.15,481,2.94,73358.8,-7.29,-8.11,-8.03,0,*52
1512558231.39,482,2.88,73348.3,-7.29,-8.07,-8.07,0,*52
1512558232.62,483,2.94,73344.8,-7.29,-8.07,-7.95,0,*57
1512558233.85,484,2.94,73342.3,-7.29,-8.07,-7.99,0,*5C
1512558235.08,485,2.94,73338.3,-7.29,-7.99,-7.95,0,*59
1512558236.31,486,2.94,73342.0,-7.29,-7.95,-7.99,0,*5A
1512558237.54,487,2.94,73348.3,-7.29,-7.95,-7.95,0,*57
1512558238.72,488,2.94,73364.5,-7.29,-7.83,-7.83,0,*58
1512558239.9,489,2.94,73356.8,-7.29,-7.87,-7.87,0,*59
1512558241.14,490,2.94,73336.8,-7.27,-7.77,-7.83,0,*54
1512558242.4,491,2.94,73322.0,-7.27,-7.91,-7.91,0,*5E
1512558243.64,492,2.94,73350.8,-7.27,-7.91,-7.83,0,*5E
1512558244.85,493,2.88,73334.3,-7.27,-7.83,-7.83,0,*5C
1512558246.11,494,2.88,73346.8,-7.27,-7.91,-7.77,0,*53
1512558247.33,495,2.88,73348.5,-7.27,-7.83,-7.83,0,*5A
1512558248.56,496,2.88,73336.8,-7.27,-7.83,-7.77,0,*52
1512558249.78,497,2.94,73362.8,-7.25,-7.83,-7.77,0,*51
1512558251.01,498,2.94,73364.0,-7.25,-7.77,-7.91,0,*5D
1512558252.25,499,2.88,73364.8,-7.25,-7.91,-7.77,0,*5C
1512558253.48,500,2.88,73364.3,-7.27,-7.91,-7.83,0,*54
1512558254.7,501,2.94,73368.8,-7.25,-7.91,-7.83,0,*57
1512558255.91,502,2.88,73368.8,-7.23,-7.87,-7.73,0,*5A
1512558257.14,503,2.88,73366.0,-7.25,-7.91,-7.77,0,*5E
1512558258.36,504,2.94,73356.5,-7.25,-7.77,-7.83,0,*5A
1512558259.57,505,2.94,73354.5,-7.25,-7.91,-7.83,0,*53
1512558260.81,506,2.94,73354.0,-7.25,-7.77,-7.77,0,*53
1512558262.0,507,2.88,73340.8,-7.25,-7.83,-7.83,0,*52
1512558263.24,508,2.94,73326.5,-7.23,-7.77,-7.77,0,*5B
1512558264.48,509,2.94,73296.8,-7.23,-7.73,-7.73,0,*5A
1512558265.72,510,2.94,73304.0,-7.23,-7.77,-7.77,0,*52
1512558266.95,511,2.94,73306.3,-7.23,-7.77,-7.77,0,*53
1512558268.19,512,2.94,73326.8,-7.23,-7.77,-7.73,0,*54
1512558269.45,513,2.94,73338.5,-7.21,-7.77,-7.77,0,*53
1512558270.69,514,2.94,73356.8,-7.23,-7.77,-7.77,0,*56
1512558271.95,515,2.94,73362.3,-7.21,-7.73,-7.77,0,*51
1512558273.21,516,2.94,73352.8,-7.21,-7.77,-7.77,0,*56
1512558274.47,517,2.94,73354.3,-7.21,-7.77,-7.77,0,*57
1512558275.74,518,2.94,73362.8,-7.21,-7.73,-7.77,0,*5C
1512558277.0,519,2.94,73382.0,-7.21,-7.77,-7.73,0,*5D
1512558278.26,520,2.88,73392.8,-7.21,-7.77,-7.73,0,*57
1512558279.52,521,2.94,73396.0,-7.21,-7.77,-7.73,0,*56
1512558280.78,522,2.94,73390.8,-7.21,-7.77,-7.73,0,*55
1512558282.04,523,2.88,73382.8,-7.21,-7.77,-7.77,0,*50
1512558283.31,524,2.94,73384.0,-7.17,-7.73,-7.73,0,*52
1512558284.57,525,2.94,73366.5,-7.17,-7.69,-7.73,0,*58
1512558285.84,526,2.94,73356.8,-7.17,-7.73,-7.69,0,*5B
1512558287.07,527,2.94,73362.3,-7.21,-7.87,-7.77,0,*5B
1512558288.31,528,2.88,73368.8,-7.21,-7.87,-7.77,0,*54
1512558289.57,529,2.94,73376.8,-7.21,-7.77,-7.77,0,*5A
1512558290.83,530,2.94,73356.3,-7.21,-7.77,-7.73,0,*56
1512558292.1,531,2.94,73340.5,-7.17,-7.73,-7.73,0,*56
1512558293.33,532,2.94,73324.3,-7.17,-7.83,-7.69,0,*51
1512558294.6,533,2.94,73310.0,-7.17,-7.73,-7.69,0,*5F
1512558295.79,534,2.94,73298.0,-7.15,-7.83,-7.83,0,*51
1512558297.03,535,2.94,73330.0,-7.15,-7.73,-7.73,0,*50
1512558298.26,536,2.94,73336.8,-7.15,-7.69,-7.73,0,*58
1512558299.53,537,2.94,73352.0,-7.17,-7.73,-7.69,0,*5B
1512558300.76,538,2.88,73360.8,-7.15,-7.69,-7.73,0,*56
1512558301.95,539,2.94,73344.8,-7.15,-7.83,-7.83,0,*5C
1512558303.19,540,2.94,73294.3,-7.17,-7.83,-7.73,0,*5F
1512558304.41,541,2.88,73308.3,-7.17,-7.83,-7.83,0,*51
1512558305.6,542,2.94,73262.3,-7.15,-7.83,-7.83,0,*50
1512558306.79,543,2.94,73308.3,-7.15,-7.83,-7.83,0,*51
1512558308.02,544,2.94,73336.0,-7.17,-7.69,-7.83,0,*50
1512558309.28,545,2.94,73354.8,-7.13,-7.77,-7.77,0,*51
1512558310.54,546,2.94,73344.3,-7.13,-7.77,-7.77,0,*52
1512558311.8,547,2.94,73340.8,-7.13,-7.65,-7.77,0,*50
1512558313.03,548,2.94,73346.5,-7.15,-7.73,-7.69,0,*51
1512558314.27,549,2.94,73332.8,-7.15,-7.69,-7.73,0,*50
1512558315.52,550,2.94,73320.0,-7.13,-7.69,-7.65,0,*59
1512558316.77,551,2.94,73302.8,-7.15,-7.73,-7.73,0,*52
1512558318.0,552,2.94,73310.5,-7.15,-7.69,-7.69,0,*51
1512558319.26,553,2.94,73314.5,-7.13,-7.65,-7.65,0,*56
1512558320.51,554,2.94,73390.5,-7.13,-7.69,-7.65,0,*5D
1512558321.77,555,2.94,73382.0,-7.13,-7.65,-7.65,0,*50
1512558323.03,556,2.94,73336.8,-7.13,-7.65,-7.65,0,*53
1512558324.29,557,2.94,73348.0,-7.13,-7.65,-7.65,0,*52
1512558325.55,558,2.88,73362.8,-7.13,-7.65,-7.57,0,*5C
1512558326.8,559,2.94,73370.0,-7.13,-7.65,-7.57,0,*5D
1512558328.07,560,2.94,73370.5,-7.13,-7.57,-7.65,0,*57
1512558329.24,561,2.94,73368.0,-7.11,-7.53,-7.53,0,*55
1512558330.45,562,2.94,73370.0,-7.11,-7.57,-7.53,0,*52
1512558331.68,563,2.94,73340.3,-7.13,-7.57,-7.53,0,*51
1512558332.89,564,2.88,73312.0,-7.11,-7.57,-7.53,0,*54
1512558334.07,565,2.88,73322.3,-7.11,-7.53,-7.53,0,*51
1512558335.28,566,2.94,73332.0,-7.11,-7.53,-7.57,0,*56
1512558336.49,567,2.94,73296.5,-7.11,-7.53,-7.57,0,*57
1512558337.7,568,2.94,73326.5,-7.11,-7.57,-7.53,0,*58
1512558338.9,569,2.94,73304.3,-7.11,-7.43,-7.53,0,*5C
1512558340.14,570,2.94,73370.8,-7.11,-7.57,-7.43,0,*50
1512558341.38,571,2.94,73372.3,-7.11,-7.57,-7.43,0,*51
1512558342.63,572,2.94,73374.0,-7.11,-7.57,-7.43,0,*52
1512558343.86,573,2.88,73382.3,-7.09,-7.49,-7.35,0,*54
1512558345.09,574,2.94,73378.3,-7.09,-7.49,-7.39,0,*5F
1512558346.29,575,2.94,73390.0,-7.07,-7.49,-7.39,0,*50
1512558347.53,576,2.94,73392.8,-7.09,-7.49,-7.39,0,*5D
1512558348.76,577,2.94,73392.0,-7.09,-7.49,-7.35,0,*50
1512558349.99,578,2.94,73390.8,-7.09,-7.49,-7.39,0,*53
1512558351.19,579,2.94,73392.5,-7.07,-7.49,-7.39,0,*5C
1512558352.45,580,2.94,73398.5,-7.09,-7.39,-7.39,0,*53
1512558353.7,581,2.88,73394.5,-7.09,-7.39,-7.39,0,*52
1512558354.93,582,2.94,73394.8,-7.07,-7.39,-7.39,0,*5F
1512558356.13,583,2.94,73404.3,-7.07,-7.49,-7.39,0,*59
1512558357.37,584,2.94,73394.3,-7.07,-7.39,-7.39,0,*59
1512558358.6,585,2.94,73392.8,-7.05,-7.49,-7.31,0,*55
1512558359.82,586,2.88,73378.8,-7.07,-7.39,-7.39,0,*5B
1512558361.05,587,2.94,73376.5,-7.07,-7.39,-7.39,0,*5A
1512558362.24,588,2.88,73374.0,-7.07,-7.49,-7.49,0,*55
1512558363.44,589,2.94,73382.3,-7.05,-7.49,-7.49,0,*56
1512558364.67,590,2.94,73386.8,-7.05,-7.49,-7.57,0,*51
1512558365.94,591,2.88,73378.5,-7.05,-7.61,-7.61,0,*5F
1512558367.19,592,2.94,73386.3,-7.05,-7.61,-7.69,0,*54
1512558368.46,593,2.94,73376.3,-7.05,-7.61,-7.57,0,*58
1512558369.7,594,2.94,73368.8,-7.03,-7.73,-7.61,0,*5F
1512558370.96,595,2.94,73404.5,-7.05,-7.69,-7.57,0,*56
1512558372.2,596,2.94,73402.0,-7.03,-7.69,-7.61,0,*56
1512558373.43,597,2.94,73388.8,-7.03,-7.69,-7.57,0,*52
1512558374.67,598,2.94,73382.5,-7.03,-7.69,-7.61,0,*58
1512558375.93,599,2.94,73384.8,-7.05,-7.69,-7.57,0,*5A
1512558377.17,600,2.94,73392.0,-7.03,-7.69,-7.57,0,*5F
1512558378.43,601,2.94,73396.8,-7.05,-7.61,-7.61,0,*55
1512558379.67,602,2.94,73374.0,-7.03,-7.61,-7.69,0,*58
1512558380.93,603,2.94,73340.8,-7.05,-7.57,-7.69,0,*5A
1512558382.17,604,2.94,73340.3,-7.03,-7.61,-7.61,0,*56
1512558383.41,605,2.94,73344.5,-7.03,-7.73,-7.69,0,*5C
1512558384.62,606,2.94,73356.5,-7.03,-7.83,-7.73,0,*5B
1512558385.86,607,2.94,73380.8,-7.03,-7.73,-7.73,0,*55
1512558387.05,608,2.94,73378.5,-7.03,-7.83,-7.83,0,*5A
1512558388.24,609,2.94,73382.0,-7.03,-7.83,-7.83,0,*5B
1512558389.45,610,2.94,73372.3,-7.05,-7.87,-7.83,0,*51
1512558390.67,611,2.94,73344.0,-7.05,-7.83,-7.87,0,*50
1512558391.88,612,2.94,73360.3,-7.05,-7.87,-7.87,0,*57
1512558393.07,613,2.94,73368.5,-7.03,-7.83,-7.83,0,*50
1512558394.25,614,2.94,73362.3,-7.03,-7.87,-7.87,0,*57
1512558395.47,615,2.94,73336.0,-7.05,-7.87,-7.87,0,*50
1512558396.68,616,2.94,73364.3,-7.05,-7.87,-7.87,0,*53
1512558397.91,617,2.94,73362.3,-7.03,-7.91,-7.91,0,*54
1512558399.14,618,2.94,73344.3,-7.03,-7.99,-7.99,0,*5B
1512558400.4,619,2.94,73336.3,-7.05,-7.99,-7.99,0,*5C
1512558401.66,620,2.94,73332.8,-7.05,-7.99,-7.99,0,*56
1512558402.88,621,2.94,73346.8,-7.03,-8.03,-8.03,0,*51
1512558404.14,622,2.94,73358.8,-7.05,-7.99,-7.99,0,*54
1512558405.4,623,2.94,73350.5,-7.05,-7.99,-7.99,0,*55
1512558406.65,624,2.94,73360.0,-7.05,-7.99,-7.99,0,*52
1512558407.91,625,2.94,73354.3,-7.05,-7.91,-7.91,0,*53
1512558409.17,626,2.94,73356.0,-7.05,-7.99,-7.99,0,*50
1512558410.39,627,2.94,73340.8,-7.07,-8.03,-8.03,0,*53
1512558411.64,628,2.94,73310.3,-7.07,-8.07,-8.07,0,*5C
1512558412.87,629,2.94,73334.0,-7.09,-8.07,-8.17,0,*52
1512558414.06,630,2.88,73308.0,-7.07,-8.17,-8.21,0,*50
1512558415.24,631,2.94,73324.3,-7.07,-8.21,-8.21,0,*54
1512558416.43,632,2.94,73338.5,-7.07,-8.21,-8.21,0,*57
1512558417.61,633,2.94,73340.0,-7.07,-8.21,-8.21,0,*56
1512558418.82,634,2.94,73328.0,-7.09,-8.21,-8.21,0,*5F
1512558420.01,635,2.88,73334.8,-7.07,-8.21,-8.21,0,*50
1512558421.22,636,2.94,73332.8,-7.09,-8.17,-8.21,0,*58
1512558422.46,637,2.94,73336.8,-7.09,-8.17,-8.07,0,*5D
1512558423.7,638,2.94,73344.8,-7.07,-8.07,-8.07,0,*5D
1512558424.94,639,2.94,73348.8,-7.09,-8.07,-8.17,0,*53
1512558426.19,640,2.94,73348.3,-7.09,-8.03,-8.03,0,*5C
1512558427.44,641,2.94,73360.0,-7.09,-7.95,-7.95,0,*5D
1512558428.67,642,2.94,73358.5,-7.07,-7.95,-7.91,0,*54
1512558429.91,643,2.88,73358.8,-7.07,-7.91,-7.91,0,*51
1512558431.14,644,2.94,73358.8,-7.09,-7.91,-7.87,0,*5F
1512558432.39,645,2.94,73360.8,-7.09,-7.91,-7.91,0,*59
1512558433.63,646,2.94,73364.5,-7.09,-7.87,-7.77,0,*55
1512558434.86,647,2.94,73360.3,-7.07,-7.91,-7.77,0,*5D
1512558436.12,648,2.94,73360.3,-7.09,-7.77,-7.77,0,*54
1512558437.38,649,2.94,73374.8,-7.09,-7.77,-7.77,0,*55
1512558438.62,650,2.94,73360.8,-7.07,-7.77,-7.77,0,*53
1512558439.83,651,2.94,73342.3,-7.07,-7.77,-7.87,0,*5D
1512558441.07,652,2.94,73352.5,-7.07,-7.77,-7.77,0,*51
1512558442.33,653,2.94,73360.5,-7.09,-7.77,-7.73,0,*5A
1512558443.56,654,2.94,73354.5,-7.07,-7.77,-7.77,0,*57
1512558444.82,655,2.94,73346.5,-7.09,-7.77,-7.77,0,*58
1512558446.09,656,2.94,73332.8,-7.09,-7.73,-7.73,0,*5B
1512558447.33,657,2.88,73324.0,-7.07,-7.73,-7.77,0,*50
1512558448.59,658,2.94,73338.0,-7.09,-7.77,-7.77,0,*55
1512558449.83,659,2.94,73344.5,-7.07,-7.73,-7.73,0,*5A
1512558451.07,660,2.94,73342.8,-7.07,-7.73,-7.73,0,*50
1512558452.34,661,2.94,73338.5,-7.05,-7.73,-7.73,0,*53
1512558453.6,662,2.88,73346.8,-7.05,-7.69,-7.69,0,*50
1512558454.85,663,2.94,73352.0,-7.05,-7.69,-7.73,0,*5A
1512558456.11,664,2.94,73330.0,-7.05,-7.69,-7.61,0,*5E
1512558457.38,665,2.94,73336.5,-7.05,-7.73,-7.61,0,*54
1512558458.64,666,2.94,73326.3,-7.05,-7.69,-7.57,0,*59
1512558459.88,667,2.94,73320.3,-7.03,-7.69,-7.61,0,*5B
1512558461.12,668,2.94,73340.8,-7.03,-7.73,-7.61,0,*5F
1512558462.38,669,2.94,73350.3,-7.05,-7.69,-7.69,0,*5B
1512558463.63,670,2.94,73346.8,-7.05,-7.69,-7.69,0,*53
1512558464.89,671,2.94,73352.5,-7.05,-7.69,-7.61,0,*5A
1512558466.14,672,2.94,73338.0,-7.03,-7.73,-7.73,0,*57
1512558467.4,673,2.94,73342.3,-7.05,-7.73,-7.69,0,*5B
1512558468.63,674,2.88,73344.8,-7.03,-7.69,-7.73,0,*5A
1512558469.87,675,2.94,73344.0,-7.03,-7.69,-7.69,0,*50
1512558471.13,676,2.94,73344.5,-7.05,-7.69,-7.61,0,*5D
1512558472.36,677,2.94,73344.5,-7.03,-7.69,-7.69,0,*52
1512558473.62,678,2.94,73372.8,-7.05,-7.69,-7.61,0,*53
1512558474.88,679,2.94,73378.5,-7.05,-7.69,-7.69,0,*5A
1512558476.11,680,2.94,73382.8,-7.03,-7.69,-7.61,0,*52
1512558477.35,681,2.94,73394.8,-7.03,-7.69,-7.61,0,*53
1512558478.59,682,2.94,73358.0,-7.03,-7.61,-7.57,0,*5D
1512558479.83,683,2.94,73386.8,-7.03,-7.61,-7.57,0,*5C
1512558481.09,684,2.94,73370.8,-7.05,-7.61,-7.57,0,*5D
1512558482.33,685,2.94,73356.3,-7.03,-7.61,-7.57,0,*5A
1512558483.57,686,2.94,73364.0,-7.03,-7.57,-7.57,0,*5C
1512558484.81,687,2.94,73368.0,-7.03,-7.61,-7.61,0,*5D
1512558486.06,688,2.94,73358.5,-7.03,-7.61,-7.61,0,*52
1512558487.24,689,2.94,73350.0,-6.99,-7.53,-7.53,0,*51
1512558488.44,690,2.94,73340.5,-7.01,-7.53,-7.53,0,*59
1512558489.67,691,2.94,73322.3,-7.01,-7.57,-7.53,0,*5C
1512558490.91,692,2.94,73314.0,-7.01,-7.57,-7.53,0,*5F
1512558492.11,693,2.94,73312.5,-7.01,-7.53,-7.53,0,*5A
1512558493.32,694,2.88,73316.5,-7.01,-7.53,-7.53,0,*5D
1512558494.5,695,2.94,73324.5,-6.99,-7.53,-7.53,0,*5C
1512558495.73,696,2.94,73320.5,-6.99,-7.39,-7.43,0,*52
1512558496.96,697,2.94,73294.3,-6.99,-7.43,-7.39,0,*53
1512558498.22,698,2.94,73306.5,-7.01,-7.39,-7.39,0,*51
1512558499.45,699,2.94,73318.8,-6.99,-7.39,-7.39,0,*50
1512558500.7,700,2.94,73336.8,-7.01,-7.39,-7.39,0,*51
1512558501.91,701,2.94,73336.5,-6.95,-7.35,-7.23,0,*5B
1512558503.15,702,2.94,73344.3,-6.99,-7.43,-7.31,0,*56
1512558504.38,703,2.94,73352.8,-6.99,-7.39,-7.39,0,*52
1512558505.61,704,2.94,73344.3,-6.99,-7.43,-7.39,0,*58
1512558506.84,705,2.94,73338.0,-6.99,-7.39,-7.39,0,*54
1512558508.08,706,2.94,73330.0,-6.99,-7.43,-7.39,0,*5A
1512558509.31,707,2.94,73322.8,-6.99,-7.39,-7.39,0,*56
1512558510.54,708,2.94,73316.0,-6.95,-7.35,-7.27,0,*56
1512558511.78,709,2.94,73320.8,-6.95,-7.35,-7.35,0,*54
1512558513.01,710,2.94,73306.3,-6.95,-7.27,-7.35,0,*5F
1512558514.24,711,2.94,73286.8,-6.95,-7.39,-7.35,0,*51
1512558515.5,712,2.88,73310.0,-6.93,-7.35,-7.39,0,*54
1512558516.74,713,2.94,73316.3,-6.95,-7.39,-7.35,0,*53
1512558517.96,714,2.94,73328.8,-6.95,-7.39,-7.39,0,*58
1512558519.19,715,2.94,73326.5,-6.95,-7.39,-7.39,0,*59
1512558520.45,716,2.94,73338.8,-6.93,-7.39,-7.39,0,*5C
1512558521.71,717,2.94,73350.8,-6.93,-7.39,-7.39,0,*5D
1512558522.96,718,2.94,73338.8,-6.93,-7.39,-7.35,0,*5E
1512558524.2,719,2.94,73352.0,-6.93,-7.49,-7.39,0,*54
1512558525.43,720,2.94,73356.0,-6.93,-7.49,-7.35,0,*52
1512558526.69,721,2.94,73350.0,-6.93,-7.35,-7.35,0,*58
1512558527.95,722,2.94,73350.5,-6.93,-7.39,-7.35,0,*57
1512558529.2,723,2.94,73338.3,-6.93,-7.39,-7.35,0,*56
1512558530.46,724,2.94,73352.3,-6.93,-7.35,-7.35,0,*5D
1512558531.73,725,2.94,73362.3,-6.93,-7.35,-7.35,0,*5C
1512558532.99,726,2.94,73358.5,-6.91,-7.31,-7.31,0,*5D
1512558534.23,727,2.94,73352.8,-6.91,-7.31,-7.23,0,*5F